LGL4RH LPPR-ELLX

Flight info

Callsign LGL4RH
Flight time 1h 57m
Altitude 24000
Route TURON P600 ASDEB/N0452F360 DCT LOTEE/N0454F380 DCT AZFIC/N0439F340 UN741 MOKOR UN873 OBATO UM163 LEQOS DCT CTL DCT MMD
Aircraft B738/M-SDE2E3FGHIRWXY/LB1

Departure

Time 2026-05-04 15:42
Airport Francisco de Sá Carneiro Airport (LPPR)

Arrival

Time 2026-05-04 17:39
Airport Luxembourg-Findel International Airport (ELLX)
Time Latitude Longitude Altitude Speed Heading
2026-05-04 14:56 41.23730 -8.67265 238 ft 0 kts 69°
2026-05-04 15:32 41.23718 -8.67308 239 ft 3 kts 69°
2026-05-04 15:33 41.23700 -8.67354 238 ft 3 kts 76°
2026-05-04 15:34 41.23712 -8.67381 239 ft 0 kts 127°
2026-05-04 15:36 41.23697 -8.67362 238 ft 8 kts 140°
2026-05-04 15:37 41.23647 -8.67368 234 ft 8 kts 229°
2026-05-04 15:37 41.23627 -8.67439 236 ft 8 kts 257°
2026-05-04 15:37 41.23622 -8.67513 234 ft 8 kts 262°
2026-05-04 15:37 41.23614 -8.67568 235 ft 6 kts 257°
2026-05-04 15:38 41.23606 -8.67618 233 ft 5 kts 257°
2026-05-04 15:38 41.23599 -8.67669 232 ft 6 kts 260°
2026-05-04 15:38 41.23598 -8.67673 232 ft 0 kts 260°
2026-05-04 15:38 41.23595 -8.67698 232 ft 8 kts 260°
2026-05-04 15:39 41.23604 -8.67803 229 ft 13 kts 310°
2026-05-04 15:39 41.23649 -8.67825 228 ft 0 kts 350°
2026-05-04 15:40 41.23650 -8.67825 228 ft 0 kts 350°
2026-05-04 15:41 41.23654 -8.67826 228 ft 4 kts 349°
2026-05-04 15:41 41.23919 -8.67896 224 ft 74 kts 349°
2026-05-04 15:41 41.24642 -8.68084 218 ft 135 kts 349°
2026-05-04 15:42 41.25688 -8.68345 432 ft 163 kts 349°
2026-05-04 15:42 41.26828 -8.68596 1108 ft 169 kts 345°
2026-05-04 15:42 41.28001 -8.68888 1825 ft 178 kts 345°
2026-05-04 15:42 41.29283 -8.69229 2273 ft 198 kts 343°
2026-05-04 15:43 41.30718 -8.69623 2466 ft 223 kts 346°
2026-05-04 15:43 41.32250 -8.70035 3105 ft 223 kts 344°
2026-05-04 15:43 41.33792 -8.70451 3740 ft 230 kts 344°
2026-05-04 15:43 41.35437 -8.70897 4155 ft 249 kts 346°
2026-05-04 15:44 41.37153 -8.71359 4971 ft 252 kts 346°
2026-05-04 15:44 41.38895 -8.71819 5686 ft 260 kts 349°
2026-05-04 15:44 41.40720 -8.71722 6475 ft 267 kts
2026-05-04 15:44 41.42534 -8.71271 7190 ft 272 kts
2026-05-04 15:45 41.44410 -8.70792 7901 ft 277 kts
2026-05-04 15:45 41.46316 -8.70315 8633 ft 281 kts
2026-05-04 15:45 41.48247 -8.69840 9407 ft 284 kts
2026-05-04 15:45 41.50209 -8.69369 10100 ft 289 kts
2026-05-04 15:46 41.52231 -8.68892 10489 ft 305 kts
2026-05-04 15:46 41.54398 -8.68390 10674 ft 327 kts
2026-05-04 15:46 41.56689 -8.67861 11138 ft 337 kts
2026-05-04 15:46 41.58983 -8.67331 11826 ft 341 kts
2026-05-04 15:47 41.61337 -8.66787 12557 ft 345 kts
2026-05-04 15:47 41.63707 -8.66241 13354 ft 347 kts
2026-05-04 15:47 41.66105 -8.65690 14049 ft 352 kts
2026-05-04 15:47 41.68533 -8.65133 14715 ft 357 kts
2026-05-04 15:48 41.70994 -8.64568 15427 ft 360 kts
2026-05-04 15:48 41.73476 -8.63998 16118 ft 364 kts
2026-05-04 15:48 41.78529 -8.62837 17456 ft 373 kts
2026-05-04 15:49 41.81091 -8.62248 18120 ft 377 kts
2026-05-04 15:49 41.83665 -8.61655 18715 ft 381 kts
2026-05-04 15:49 41.86294 -8.61050 19318 ft 384 kts
2026-05-04 15:49 41.88939 -8.60439 19929 ft 388 kts
2026-05-04 15:50 41.91608 -8.59822 20506 ft 391 kts
2026-05-04 15:50 41.94302 -8.59200 21095 ft 395 kts
2026-05-04 15:50 41.97024 -8.58570 21650 ft 399 kts
2026-05-04 15:50 41.99780 -8.57931 22214 ft 403 kts
2026-05-04 15:51 42.02553 -8.57288 22789 ft 406 kts
2026-05-04 15:51 42.05351 -8.56640 23322 ft 410 kts
2026-05-04 15:51 42.08178 -8.56023 23800 ft 413 kts
2026-05-04 15:51 42.10997 -8.55540 24260 ft 415 kts
2026-05-04 15:52 42.13869 -8.55107 24691 ft 418 kts
2026-05-04 15:52 42.16780 -8.54682 25107 ft 421 kts
2026-05-04 15:52 42.19701 -8.54248 25521 ft 424 kts
2026-05-04 15:52 42.22642 -8.53800 25905 ft 428 kts
2026-05-04 15:53 42.25611 -8.53338 26339 ft 430 kts
2026-05-04 15:53 42.28589 -8.52870 26715 ft 433 kts
2026-05-04 15:53 42.31597 -8.52392 27089 ft 437 kts
2026-05-04 15:53 42.34629 -8.51908 27497 ft 440 kts
2026-05-04 15:54 42.37638 -8.51428 27881 ft 443 kts
2026-05-04 15:54 42.40708 -8.50938 28241 ft 446 kts
2026-05-04 15:54 42.43797 -8.50447 28573 ft 449 kts
2026-05-04 15:54 42.46913 -8.49947 28904 ft 453 kts
2026-05-04 15:55 42.50022 -8.49011 29191 ft 464 kts 14°
2026-05-04 15:55 42.52999 -8.47220 29547 ft 473 kts 25°
2026-05-04 15:55 42.55726 -8.44654 29859 ft 482 kts 36°
2026-05-04 15:55 42.58270 -8.41676 30169 ft 486 kts 38°
2026-05-04 15:56 42.60805 -8.38601 30434 ft 489 kts 38°
2026-05-04 15:56 42.63301 -8.35547 30723 ft 490 kts 38°
2026-05-04 15:56 42.65837 -8.32455 31005 ft 491 kts 38°
2026-05-04 15:56 42.68389 -8.29368 31301 ft 491 kts 38°
2026-05-04 15:57 42.70948 -8.26295 31685 ft 490 kts 38°
2026-05-04 15:57 42.73499 -8.23245 32153 ft 487 kts 38°
2026-05-04 15:57 42.76041 -8.20214 32557 ft 485 kts 38°
2026-05-04 15:57 42.78580 -8.17189 32908 ft 484 kts 38°
2026-05-04 15:58 42.81112 -8.14170 33254 ft 484 kts 38°
2026-05-04 15:58 42.83606 -8.11192 33628 ft 482 kts 38°
2026-05-04 15:58 42.86119 -8.08188 34018 ft 480 kts 38°
2026-05-04 15:58 42.88623 -8.05188 34328 ft 479 kts 38°
2026-05-04 15:59 42.91123 -8.02191 34572 ft 479 kts 38°
2026-05-04 15:59 42.93628 -7.99184 34795 ft 480 kts 38°
2026-05-04 15:59 42.96138 -7.96168 35066 ft 479 kts 39°
2026-05-04 15:59 42.98632 -7.93165 35360 ft 478 kts 39°
2026-05-04 16:00 43.01131 -7.90154 35630 ft 478 kts 39°
2026-05-04 16:00 43.03623 -7.87149 35854 ft 478 kts 39°
2026-05-04 16:00 43.06114 -7.84140 36102 ft 477 kts 39°
2026-05-04 16:00 43.08603 -7.81131 36350 ft 477 kts 39°
2026-05-04 16:01 43.11057 -7.78161 36602 ft 476 kts 39°
2026-05-04 16:01 43.13574 -7.75111 36850 ft 476 kts 39°
2026-05-04 16:01 43.16018 -7.72146 37041 ft 476 kts 39°
2026-05-04 16:01 43.18511 -7.69121 37058 ft 480 kts 39°
2026-05-04 16:02 43.23516 -7.63033 37054 ft 479 kts 39°
2026-05-04 16:03 43.30909 -7.54010 37044 ft 472 kts 39°
2026-05-04 16:03 43.35825 -7.47998 37047 ft 473 kts 39°
2026-05-04 16:04 43.40745 -7.41966 37052 ft 474 kts 39°
2026-05-04 16:04 43.48091 -7.32934 37027 ft 475 kts 40°
2026-05-04 16:05 43.53017 -7.26860 37023 ft 475 kts 40°
2026-05-04 16:06 43.60404 -7.17724 37023 ft 475 kts 40°
2026-05-04 16:07 43.70252 -7.05497 37018 ft 476 kts 40°
2026-05-04 16:08 43.80050 -6.93275 37009 ft 475 kts 40°
2026-05-04 16:09 43.92299 -6.77917 37007 ft 474 kts 40°
2026-05-04 16:10 44.02031 -6.65649 37005 ft 473 kts 41°
2026-05-04 16:11 44.10950 -6.54358 37004 ft 473 kts 41°
2026-05-04 16:12 44.25500 -6.35833 37007 ft 471 kts 41°
2026-05-04 16:13 44.35174 -6.23444 36995 ft 471 kts 41°
2026-05-04 16:14 44.44803 -6.11055 36995 ft 471 kts 42°
2026-05-04 16:16 44.56862 -5.95455 36994 ft 472 kts 42°
2026-05-04 16:17 44.68863 -5.79754 36992 ft 473 kts 43°
2026-05-04 16:18 44.78276 -5.66789 36983 ft 474 kts 44°
2026-05-04 16:19 44.90057 -5.50539 36991 ft 474 kts 44°
2026-05-04 16:20 45.01826 -5.34233 36975 ft 473 kts 45°
2026-05-04 16:22 45.13510 -5.17943 36984 ft 472 kts 45°
2026-05-04 16:23 45.27498 -4.98310 36976 ft 471 kts 45°
2026-05-04 16:25 45.41434 -4.78605 36984 ft 471 kts 45°
2026-05-04 16:26 45.57607 -4.55556 36982 ft 470 kts 46°
2026-05-04 16:28 45.69160 -4.38967 36988 ft 471 kts 46°
2026-05-04 16:29 45.85289 -4.15636 36977 ft 471 kts 46°
2026-05-04 16:31 45.96751 -3.98930 36982 ft 470 kts 46°
2026-05-04 16:32 46.10473 -3.78793 36974 ft 469 kts 47°
2026-05-04 16:33 46.15006 -3.72105 37109 ft 472 kts 47°
2026-05-04 16:33 46.19579 -3.65343 37624 ft 470 kts 46°
2026-05-04 16:34 46.24140 -3.58583 37965 ft 471 kts 46°
2026-05-04 16:34 46.26431 -3.55179 37973 ft 474 kts 47°
2026-05-04 16:35 46.40128 -3.34744 37964 ft 469 kts 47°
2026-05-04 16:36 46.46913 -3.24562 37965 ft 467 kts 47°
2026-05-04 16:37 46.53629 -3.14446 37972 ft 465 kts 47°
2026-05-04 16:37 46.57867 -3.07389 37957 ft 463 kts 59°
2026-05-04 16:38 46.61117 -2.99333 37963 ft 462 kts 62°
2026-05-04 16:39 46.69101 -2.79038 37948 ft 463 kts 61°
2026-05-04 16:40 46.75542 -2.62837 37955 ft 464 kts 62°
2026-05-04 16:41 46.83622 -2.42362 37938 ft 467 kts 62°
2026-05-04 16:43 46.92004 -2.22046 37966 ft 469 kts 59°
2026-05-04 16:43 46.97163 -2.09851 37950 ft 470 kts 60°
2026-05-04 16:44 47.05726 -1.95607 37963 ft 474 kts 37°
2026-05-04 16:45 47.11070 -1.89922 37956 ft 475 kts 37°
2026-05-04 16:46 47.24262 -1.75359 37926 ft 473 kts 38°
2026-05-04 16:47 47.34649 -1.63638 37922 ft 469 kts 45°
2026-05-04 16:48 47.42763 -1.48718 37940 ft 466 kts 54°
2026-05-04 16:49 47.50682 -1.33565 37938 ft 468 kts 53°
2026-05-04 16:50 47.58711 -1.18264 37938 ft 472 kts 54°
2026-05-04 16:51 47.64753 -1.06683 37954 ft 475 kts 54°
2026-05-04 16:52 47.72794 -0.91198 37939 ft 475 kts 54°
2026-05-04 16:53 47.78826 -0.79538 37933 ft 473 kts 54°
2026-05-04 16:54 47.86778 -0.64094 37961 ft 471 kts 54°
2026-05-04 16:55 47.98645 -0.40876 37958 ft 468 kts 54°
2026-05-04 16:56 48.08033 -0.21231 37953 ft 464 kts 66°
2026-05-04 16:57 48.12113 -0.08005 37950 ft 468 kts 68°
2026-05-04 16:58 48.17543 0.09605 37937 ft 468 kts 67°
2026-05-04 17:00 48.25759 0.36124 37947 ft 468 kts 67°
2026-05-04 17:01 48.32547 0.58264 37947 ft 469 kts 68°
2026-05-04 17:02 48.38006 0.76214 37938 ft 473 kts 68°
2026-05-04 17:03 48.42093 0.89737 37914 ft 472 kts 68°
2026-05-04 17:03 48.46129 1.03163 37929 ft 471 kts 68°
2026-05-04 17:04 48.51495 1.21133 37922 ft 469 kts 68°
2026-05-04 17:05 48.56795 1.39011 37919 ft 467 kts 68°
2026-05-04 17:06 48.60754 1.52452 37914 ft 467 kts 68°
2026-05-04 17:07 48.64254 1.64394 37930 ft 467 kts 68°
2026-05-04 17:07 48.66977 1.75075 37899 ft 466 kts 72°
2026-05-04 17:08 48.70248 1.88855 37934 ft 466 kts 72°
2026-05-04 17:09 48.72481 1.98100 37948 ft 469 kts 72°
2026-05-04 17:09 48.74727 2.07394 37938 ft 470 kts 72°
2026-05-04 17:10 48.80793 2.30430 37936 ft 473 kts 70°
2026-05-04 17:11 48.83264 2.39653 37931 ft 470 kts 70°
2026-05-04 17:11 48.85704 2.48877 37463 ft 469 kts 70°
2026-05-04 17:12 48.86911 2.53460 37172 ft 467 kts 70°
2026-05-04 17:12 48.89319 2.62613 36091 ft 465 kts 71°
2026-05-04 17:13 48.92868 2.76165 34721 ft 458 kts 71°
2026-05-04 17:14 48.96355 2.89556 33401 ft 450 kts 72°
2026-05-04 17:14 48.97501 2.93977 32963 ft 446 kts 72°
2026-05-04 17:14 48.99712 3.02529 32171 ft 439 kts 72°
2026-05-04 17:15 49.00824 3.06843 31789 ft 437 kts 72°
2026-05-04 17:15 49.03032 3.15432 30964 ft 433 kts 72°
2026-05-04 17:16 49.05209 3.23933 30217 ft 429 kts 72°
2026-05-04 17:16 49.08400 3.36450 28970 ft 419 kts 72°
2026-05-04 17:17 49.09446 3.40569 28575 ft 414 kts 72°
2026-05-04 17:17 49.12520 3.52713 27394 ft 404 kts 72°
2026-05-04 17:18 49.13526 3.56701 26980 ft 401 kts 72°
2026-05-04 17:18 49.15112 3.64698 26228 ft 393 kts 79°
2026-05-04 17:19 49.16422 3.72748 25485 ft 388 kts 79°
2026-05-04 17:19 49.17721 3.80716 24745 ft 385 kts 78°
2026-05-04 17:20 49.19034 3.88622 24006 ft 383 kts 78°
2026-05-04 17:20 49.20351 3.96495 23203 ft 381 kts 77°
2026-05-04 17:20 49.20997 4.00361 22805 ft 379 kts 77°
2026-05-04 17:21 49.22293 4.08134 22038 ft 374 kts 77°
2026-05-04 17:21 49.23563 4.15787 21312 ft 369 kts 77°
2026-05-04 17:22 49.24189 4.19572 20969 ft 366 kts 77°
2026-05-04 17:22 49.24811 4.23342 20609 ft 364 kts 77°
2026-05-04 17:23 49.26638 4.34469 19552 ft 357 kts 77°
2026-05-04 17:23 49.27239 4.38145 19217 ft 356 kts 77°
2026-05-04 17:23 49.28432 4.45463 18500 ft 353 kts 78°
2026-05-04 17:24 49.29023 4.49102 18163 ft 351 kts 78°
2026-05-04 17:24 49.30767 4.59889 17208 ft 342 kts 78°
2026-05-04 17:25 49.31342 4.63460 16421 ft 353 kts 77°
2026-05-04 17:25 49.32535 4.70899 15308 ft 359 kts 77°
2026-05-04 17:26 49.33704 4.78212 14630 ft 352 kts 77°
2026-05-04 17:26 49.35429 4.89059 13510 ft 346 kts 76°
2026-05-04 17:27 49.36567 4.96261 12481 ft 349 kts 78°
2026-05-04 17:27 49.37688 5.03376 11810 ft 342 kts 78°
2026-05-04 17:28 49.38792 5.10417 11082 ft 338 kts 78°
2026-05-04 17:29 49.40542 5.20779 10062 ft 331 kts 76°
2026-05-04 17:29 49.42325 5.30899 8986 ft 324 kts 76°
2026-05-04 17:30 49.44046 5.40792 7948 ft 309 kts 77°
2026-05-04 17:31 49.45099 5.46880 7433 ft 286 kts 77°
2026-05-04 17:31 49.46454 5.54777 6434 ft 287 kts 77°
2026-05-04 17:32 49.47457 5.60645 5932 ft 282 kts 77°
2026-05-04 17:33 49.49090 5.70230 5170 ft 270 kts 77°
2026-05-04 17:33 49.49553 5.72954 5094 ft 257 kts 77°
2026-05-04 17:34 49.50735 5.79936 4085 ft 252 kts 77°
2026-05-04 17:34 49.51171 5.82523 3777 ft 246 kts 77°
2026-05-04 17:35 49.52428 5.89998 3184 ft 243 kts 79°
2026-05-04 17:35 49.53267 5.94989 2989 ft 237 kts 78°
2026-05-04 17:35 49.53844 5.97348 2974 ft 236 kts 66°
2026-05-04 17:36 49.54636 5.99542 2981 ft 239 kts 62°
2026-05-04 17:36 49.55472 6.01757 2976 ft 237 kts 63°
2026-05-04 17:36 49.56263 6.03886 2940 ft 220 kts 63°
2026-05-04 17:36 49.56979 6.05824 2956 ft 197 kts 64°
2026-05-04 17:37 49.57624 6.07571 2851 ft 181 kts 64°
2026-05-04 17:37 49.58236 6.09237 2671 ft 176 kts 63°
2026-05-04 17:37 49.58821 6.10817 2408 ft 164 kts 64°
2026-05-04 17:37 49.59369 6.12303 2194 ft 157 kts 64°
2026-05-04 17:38 49.59900 6.13746 1975 ft 152 kts 63°
2026-05-04 17:38 49.60404 6.15105 1757 ft 150 kts 63°
2026-05-04 17:38 49.60911 6.16478 1576 ft 148 kts 63°
2026-05-04 17:38 49.61416 6.17836 1360 ft 145 kts 62°
2026-05-04 17:39 49.62343 6.20342 1226 ft 99 kts 58°
2026-05-04 17:39 49.62582 6.20971 1240 ft 37 kts 52°
2026-05-04 17:39 49.62687 6.21124 1233 ft 20 kts 37°
2026-05-04 17:40 49.62809 6.21245 1228 ft 22 kts 32°
2026-05-04 17:40 49.62947 6.21337 1227 ft 22 kts
2026-05-04 17:40 49.63032 6.21503 1226 ft 21 kts 68°
2026-05-04 17:40 49.63094 6.21699 1224 ft 20 kts 65°
2026-05-04 17:41 49.63155 6.21886 1226 ft 14 kts 45°
2026-05-04 17:41 49.63240 6.21861 1228 ft 13 kts 329°
2026-05-04 17:41 49.63316 6.21786 1229 ft 13 kts 328°
2026-05-04 17:41 49.63366 6.21742 1229 ft 0 kts 330°